[TLELIST] Archives

 

[list_settings.list_name] Current TLEs

February 24th 2012 PST

HST 1 20580U 90037B 12055.13056889 .00001558 00000-0 10289-3 0 9494 2 20580 028.4687 169.7711 0002983 286.5473 073.4797 15.02207347997565 ISS (ZARYA) 1 25544U 98067A 12055.40334616 .00020055 00000-0 25384-3 0 729 2 25544 051.6450 332.7074 0020572 080.2558 027.1134 15.59248306760276 CXO 1 25867U 99040B 12055.16666667 -.00000403 00000-0 00000+0 0 7059 2 25867 071.4922 013.2465 8745557 277.9126 352.4295 00.37805667 8720 ____________________________________________________________________ These 2-Line ...Continue Reading

[list_settings.list_name] Current TLEs

February 23rd 2012 PST

HST 1 20580U 90037B 12054.06756340 .00001552 00000-0 10250-3 0 9485 2 20580 028.4682 176.7224 0003046 274.1397 085.8949 15.02204207997407 ISS (ZARYA) 1 25544U 98067A 12054.37686463 .00019696 00000-0 24981-3 0 679 2 25544 051.6448 337.8635 0020679 076.3446 025.3252 15.59205619760116 CXO 1 25867U 99040B 12055.16666667 -.00000403 00000-0 00000+0 0 7059 2 25867 071.4922 013.2465 8745557 277.9126 352.4295 00.37805667 8720 ____________________________________________________________________ These 2-Line ...Continue Reading

[list_settings.list_name] Current TLEs

February 22nd 2012 PST

HST 1 20580U 90037B 12051.14428196 .00001392 00000-0 90649-4 0 9478 2 20580 028.4679 195.8416 0003133 239.7441 120.2829 15.02195779996966 ISS (ZARYA) 1 25544U 98067A 12053.41581140 .00019077 00000-0 24260-3 0 616 2 25544 051.6448 342.6911 0020527 072.8455 030.7627 15.59163585759962 CXO 1 25867U 99040B 12055.16666667 -.00000403 00000-0 00000+0 0 7059 2 25867 071.4922 013.2465 8745557 277.9126 352.4295 00.37805667 8720 ____________________________________________________________________ These 2-Line ...Continue Reading

[list_settings.list_name] Current TLEs

February 21st 2012 PST

HST 1 20580U 90037B 12051.14428196 .00001392 00000-0 90649-4 0 9478 2 20580 028.4679 195.8416 0003133 239.7441 120.2829 15.02195779996966 ISS (ZARYA) 1 25544U 98067A 12052.45520840 .00015401 00000-0 19755-3 0 552 2 25544 051.6431 347.5124 0020713 067.8515 040.3551 15.59115014759813 CXO 1 25867U 99040B 12052.54166667 -.00000339 00000-0 00000+0 0 7040 2 25867 071.4670 013.4501 8746977 277.8919 355.1381 00.37805480 8717 ____________________________________________________________________ These 2-Line ...Continue Reading

[list_settings.list_name] Current TLEs

February 20th 2012 PST

HST 1 20580U 90037B 12051.14428196 .00001392 00000-0 90649-4 0 9478 2 20580 028.4679 195.8416 0003133 239.7441 120.2829 15.02195779996966 ISS (ZARYA) 1 25544U 98067A 12051.42827708 .00023426 00000-0 29700-3 0 479 2 25544 051.6450 352.6737 0020519 064.9852 035.4779 15.59096077759653 CXO 1 25867U 99040B 12052.54166667 -.00000339 00000-0 00000+0 0 7040 2 25867 071.4670 013.4501 8746977 277.8919 355.1381 00.37805480 8717 ____________________________________________________________________ These 2-Line ...Continue Reading

[list_settings.list_name] Current TLEs

February 19th 2012 PST

HST 1 20580U 90037B 12050.14770571 .00001508 00000-0 99262-4 0 9462 2 20580 028.4678 202.3613 0003217 230.7080 129.3190 15.02193695996811 ISS (ZARYA) 1 25544U 98067A 12050.46757066 .00020349 00000-0 25941-3 0 396 2 25544 051.6436 357.5013 0020524 061.2035 043.5477 15.59049540759509 CXO 1 25867U 99040B 12049.91666667 -.00000405 00000-0 00000+0 0 7035 2 25867 071.4426 013.6385 8746870 277.8713 357.9098 00.37802079 8707 ____________________________________________________________________ These 2-Line ...Continue Reading

[list_settings.list_name] Current TLEs

February 18th 2012 PST

HST 1 20580U 90037B 12046.82577986 .00001290 00000-0 83076-4 0 9449 2 20580 028.4681 224.0934 0003442 192.6736 167.3883 15.02183651996313 ISS (ZARYA) 1 25544U 98067A 12049.32438828 .00016470 00000-0 21153-3 0 325 2 25544 051.6430 003.2375 0020757 056.3284 108.0372 15.59019009759326 CXO 1 25867U 99040B 12049.91666667 -.00000405 00000-0 00000+0 0 7035 2 25867 071.4426 013.6385 8746870 277.8713 357.9098 00.37802079 8707 ____________________________________________________________________ These 2-Line ...Continue Reading

[list_settings.list_name] Current TLEs

February 17th 2012 PST

HST 1 20580U 90037B 12046.82577986 .00001290 00000-0 83076-4 0 9449 2 20580 028.4681 224.0934 0003442 192.6736 167.3883 15.02183651996313 ISS (ZARYA) 1 25544U 98067A 12048.35794172 .00031646 00000-0 39984-3 0 260 2 25544 051.6419 008.0930 0020635 051.5779 085.0961 15.59004941759174 CXO 1 25867U 99040B 12049.91666667 -.00000405 00000-0 00000+0 0 7035 2 25867 071.4426 013.6385 8746870 277.8713 357.9098 00.37802079 8707 ____________________________________________________________________ These 2-Line ...Continue Reading

[list_settings.list_name] Current TLEs

February 16th 2012 PST

HST 1 20580U 90037B 12046.82577986 .00001290 00000-0 83076-4 0 9449 2 20580 028.4681 224.0934 0003442 192.6736 167.3883 15.02183651996313 ISS (ZARYA) 1 25544U 98067A 12047.33482958 .00014139 00000-0 18312-3 0 218 2 25544 051.6430 013.2289 0020576 050.4414 100.3868 15.58944563759012 CXO 1 25867U 99040B 12047.25000000 -.00000612 00000-0 00000+0 0 7022 2 25867 071.4218 013.8048 8746504 277.8541 354.9872 00.37804714 8690 ____________________________________________________________________ These 2-Line ...Continue Reading

[list_settings.list_name] Current TLEs

February 15th 2012 PST

HST 1 20580U 90037B 12044.89904863 .00001055 00000-0 65693-4 0 9435 2 20580 028.4684 236.6941 0003400 171.5622 188.4985 15.02178724996027 ISS (ZARYA) 1 25544U 98067A 12046.37568359 .00011191 00000-0 14657-3 0 135 2 25544 051.6432 018.0460 0020576 046.8532 117.5159 15.58911835758869 CXO 1 25867U 99040B 12047.25000000 -.00000612 00000-0 00000+0 0 7022 2 25867 071.4218 013.8048 8746504 277.8541 354.9872 00.37804714 8690 ____________________________________________________________________ These 2-Line ...Continue Reading
  • This mailing list is a public mailing list - anyone may join or leave, at any time.
  • This mailing list is announce-only.

International Space Station (ISS) / Hubble Space Telescope (HST) / Chandra X-Ray Observatory Orbital Data via EMAIL

Privacy Policy:

Private list